Year,Month,Day,Hour,Minute,Value (Times are PST for temperature in C)
2017,09,04,00,00,20.10
2017,09,04,00,01,20.00
2017,09,04,00,02,19.90
2017,09,04,00,03,19.90
2017,09,04,00,04,19.90
2017,09,04,00,05,20.00
2017,09,04,00,06,19.90
2017,09,04,00,07,19.90
2017,09,04,00,08,19.80
2017,09,04,00,09,19.80
2017,09,04,00,10,19.80
2017,09,04,00,11,19.80
2017,09,04,00,12,19.80
2017,09,04,00,13,19.90
2017,09,04,00,14,19.90
2017,09,04,00,15,19.90
2017,09,04,00,16,20.00
2017,09,04,00,17,20.00
2017,09,04,00,18,20.10
2017,09,04,00,19,20.10
2017,09,04,00,20,20.10
2017,09,04,00,21,20.10
2017,09,04,00,22,20.10
2017,09,04,00,23,20.10
2017,09,04,00,24,20.10
2017,09,04,00,25,20.20
2017,09,04,00,26,20.20
2017,09,04,00,27,20.30
2017,09,04,00,28,20.40
2017,09,04,00,29,20.50
2017,09,04,00,30,20.60
2017,09,04,00,31,20.60
2017,09,04,00,32,20.70
2017,09,04,00,33,20.80
2017,09,04,00,34,20.80
2017,09,04,00,35,20.90
2017,09,04,00,36,20.90
2017,09,04,00,37,20.90
2017,09,04,00,38,20.90
2017,09,04,00,39,20.90
2017,09,04,00,40,20.90
2017,09,04,00,41,20.90
2017,09,04,00,42,20.90
2017,09,04,00,43,20.90
2017,09,04,00,44,21.00
2017,09,04,00,45,21.00
2017,09,04,00,46,21.10
2017,09,04,00,47,21.10
2017,09,04,00,48,21.10
2017,09,04,00,49,21.10
2017,09,04,00,50,21.10
2017,09,04,00,51,21.10
2017,09,04,00,52,21.00
2017,09,04,00,53,21.00
2017,09,04,00,54,21.00
2017,09,04,00,55,20.90
2017,09,04,00,56,20.90
2017,09,04,00,57,20.90
2017,09,04,00,58,20.90
2017,09,04,00,59,20.90
2017,09,04,01,00,20.90
2017,09,04,01,01,20.90
2017,09,04,01,02,20.90
2017,09,04,01,03,20.90
2017,09,04,01,04,20.90
2017,09,04,01,05,20.90
2017,09,04,01,06,21.00
2017,09,04,01,07,21.00
2017,09,04,01,08,21.10
2017,09,04,01,09,21.10
2017,09,04,01,10,21.10
2017,09,04,01,11,21.10
2017,09,04,01,12,21.10
2017,09,04,01,13,21.10
2017,09,04,01,14,21.10
2017,09,04,01,15,21.10
2017,09,04,01,16,21.10
2017,09,04,01,17,21.10
2017,09,04,01,18,21.10
2017,09,04,01,19,21.10
2017,09,04,01,20,21.10
2017,09,04,01,21,21.10
2017,09,04,01,22,21.10
2017,09,04,01,23,21.10
2017,09,04,01,24,21.10
2017,09,04,01,25,21.10
2017,09,04,01,26,21.00
2017,09,04,01,27,21.00
2017,09,04,01,28,20.90
2017,09,04,01,29,20.90
2017,09,04,01,30,20.90
2017,09,04,01,31,20.90
2017,09,04,01,32,20.90
2017,09,04,01,33,20.90
2017,09,04,01,34,20.90
2017,09,04,01,35,20.80
2017,09,04,01,36,20.80
2017,09,04,01,37,20.80
2017,09,04,01,38,20.70
2017,09,04,01,39,20.70
2017,09,04,01,40,20.70
2017,09,04,01,41,20.60
2017,09,04,01,42,20.60
2017,09,04,01,43,20.60
2017,09,04,01,44,20.50
2017,09,04,01,45,20.50
2017,09,04,01,46,20.50
2017,09,04,01,47,20.40
2017,09,04,01,48,20.40
2017,09,04,01,49,20.40
2017,09,04,01,50,20.40
2017,09,04,01,51,20.30
2017,09,04,01,52,20.30
2017,09,04,01,53,20.30
2017,09,04,01,54,20.30
2017,09,04,01,55,20.30
2017,09,04,01,56,20.40
2017,09,04,01,57,20.30
2017,09,04,01,58,20.40
2017,09,04,01,59,20.40
2017,09,04,02,00,20.40
2017,09,04,02,01,20.50
2017,09,04,02,02,20.50
2017,09,04,02,03,20.60
2017,09,04,02,04,20.60
2017,09,04,02,05,20.70
2017,09,04,02,06,20.70
2017,09,04,02,07,20.70
2017,09,04,02,08,20.80
2017,09,04,02,09,20.80
2017,09,04,02,10,20.80
2017,09,04,02,11,20.80
2017,09,04,02,12,20.80
2017,09,04,02,13,20.80
2017,09,04,02,14,20.80
2017,09,04,02,15,20.80
2017,09,04,02,16,20.80
2017,09,04,02,17,20.80
2017,09,04,02,18,20.80
2017,09,04,02,19,20.80
2017,09,04,02,20,20.70
2017,09,04,02,21,20.60
2017,09,04,02,22,20.50
2017,09,04,02,23,20.50
2017,09,04,02,24,20.40
2017,09,04,02,25,20.30
2017,09,04,02,26,20.20
2017,09,04,02,27,20.20
2017,09,04,02,28,20.10
2017,09,04,02,29,20.00
2017,09,04,02,30,19.90
2017,09,04,02,31,19.80
2017,09,04,02,32,19.70
2017,09,04,02,33,19.60
2017,09,04,02,34,19.50
2017,09,04,02,35,19.40
2017,09,04,02,36,19.30
2017,09,04,02,37,19.20
2017,09,04,02,38,19.10
2017,09,04,02,39,19.00
2017,09,04,02,40,18.90
2017,09,04,02,41,18.90
2017,09,04,02,42,18.90
2017,09,04,02,43,18.80
2017,09,04,02,44,18.80
2017,09,04,02,45,18.80
2017,09,04,02,46,18.80
2017,09,04,02,47,18.90
2017,09,04,02,48,18.90
2017,09,04,02,49,18.90
2017,09,04,02,50,18.90
2017,09,04,02,51,18.90
2017,09,04,02,52,18.90
2017,09,04,02,53,18.90
2017,09,04,02,54,18.80
2017,09,04,02,55,18.80
2017,09,04,02,56,18.80
2017,09,04,02,57,18.80
2017,09,04,02,58,18.80
2017,09,04,02,59,18.80
2017,09,04,03,00,18.90
2017,09,04,03,01,18.90
2017,09,04,03,02,19.00
2017,09,04,03,03,19.10
2017,09,04,03,04,19.20
2017,09,04,03,05,19.30
2017,09,04,03,06,19.40
2017,09,04,03,07,19.40
2017,09,04,03,08,19.50
2017,09,04,03,09,19.50
2017,09,04,03,10,19.60
2017,09,04,03,11,19.60
2017,09,04,03,12,19.60
2017,09,04,03,13,19.70
2017,09,04,03,14,19.70
2017,09,04,03,15,19.80
2017,09,04,03,16,19.90
2017,09,04,03,17,19.90
2017,09,04,03,18,20.00
2017,09,04,03,19,20.00
2017,09,04,03,20,20.00
2017,09,04,03,21,20.00
2017,09,04,03,22,20.00
2017,09,04,03,23,20.00
2017,09,04,03,24,20.00
2017,09,04,03,25,20.00
2017,09,04,03,26,20.00
2017,09,04,03,27,20.00
2017,09,04,03,28,19.90
2017,09,04,03,29,19.90
2017,09,04,03,30,19.90
2017,09,04,03,31,19.90
2017,09,04,03,32,19.90
2017,09,04,03,33,19.90
2017,09,04,03,34,19.90
2017,09,04,03,35,19.90
2017,09,04,03,36,19.80
2017,09,04,03,37,19.80
2017,09,04,03,38,19.80
2017,09,04,03,39,19.80
2017,09,04,03,40,19.80
2017,09,04,03,41,19.80
2017,09,04,03,42,19.80
2017,09,04,03,43,19.80
2017,09,04,03,44,19.80
2017,09,04,03,45,19.80
2017,09,04,03,46,19.80
2017,09,04,03,47,19.90
2017,09,04,03,48,19.90
2017,09,04,03,49,19.90
2017,09,04,03,50,19.90
2017,09,04,03,51,19.90
2017,09,04,03,52,19.90
2017,09,04,03,53,19.80
2017,09,04,03,54,19.80
2017,09,04,03,55,19.80
2017,09,04,03,56,19.80
2017,09,04,03,57,19.80
2017,09,04,03,58,19.80
2017,09,04,03,59,19.80
2017,09,04,04,00,19.80
2017,09,04,04,01,19.80
2017,09,04,04,02,19.80
2017,09,04,04,03,19.80
2017,09,04,04,04,19.80
2017,09,04,04,05,19.70
2017,09,04,04,06,19.70
2017,09,04,04,07,19.70
2017,09,04,04,08,19.70
2017,09,04,04,09,19.70
2017,09,04,04,10,19.70
2017,09,04,04,11,19.70
2017,09,04,04,12,19.70
2017,09,04,04,13,19.70
2017,09,04,04,14,19.70
2017,09,04,04,15,19.70
2017,09,04,04,16,19.70
2017,09,04,04,17,19.60
2017,09,04,04,18,19.50
2017,09,04,04,19,19.50
2017,09,04,04,20,19.40
2017,09,04,04,21,19.30
2017,09,04,04,22,19.30
2017,09,04,04,23,19.20
2017,09,04,04,24,19.10
2017,09,04,04,25,18.90
2017,09,04,04,26,18.80
2017,09,04,04,27,18.70
2017,09,04,04,28,18.60
2017,09,04,04,29,18.60
2017,09,04,04,30,18.50
2017,09,04,04,31,18.40
2017,09,04,04,32,18.40
2017,09,04,04,33,18.30
2017,09,04,04,34,18.30
2017,09,04,04,35,18.30
2017,09,04,04,36,18.40
2017,09,04,04,37,18.50
2017,09,04,04,38,18.50
2017,09,04,04,39,18.60
2017,09,04,04,40,18.60
2017,09,04,04,41,18.70
2017,09,04,04,42,18.70
2017,09,04,04,43,18.80
2017,09,04,04,44,18.80
2017,09,04,04,45,18.90
2017,09,04,04,46,18.90
2017,09,04,04,47,18.90
2017,09,04,04,48,19.00
2017,09,04,04,49,19.00
2017,09,04,04,50,19.10
2017,09,04,04,51,19.20
2017,09,04,04,52,19.20
2017,09,04,04,53,19.30
2017,09,04,04,54,19.30
2017,09,04,04,55,19.40
2017,09,04,04,56,19.40
2017,09,04,04,57,19.40
2017,09,04,04,58,19.50
2017,09,04,04,59,19.50
2017,09,04,05,00,19.60
2017,09,04,05,01,19.60
2017,09,04,05,02,19.60
2017,09,04,05,03,19.60
2017,09,04,05,04,19.70
2017,09,04,05,05,19.70
2017,09,04,05,06,19.70
2017,09,04,05,07,19.70
2017,09,04,05,08,19.80
2017,09,04,05,09,19.80
2017,09,04,05,10,19.80
2017,09,04,05,11,19.80
2017,09,04,05,12,19.80
2017,09,04,05,13,19.90
2017,09,04,05,14,19.90
2017,09,04,05,15,19.90
2017,09,04,05,16,19.90
2017,09,04,05,17,20.00
2017,09,04,05,18,20.00
2017,09,04,05,19,20.00
2017,09,04,05,20,20.00
2017,09,04,05,21,20.00
2017,09,04,05,22,20.00
2017,09,04,05,23,20.00
2017,09,04,05,24,20.00
2017,09,04,05,25,20.00
2017,09,04,05,26,20.00
2017,09,04,05,27,19.90
2017,09,04,05,28,19.90
2017,09,04,05,29,19.90
2017,09,04,05,30,19.90
2017,09,04,05,31,19.90
2017,09,04,05,32,19.90
2017,09,04,05,33,19.90
2017,09,04,05,34,19.90
2017,09,04,05,35,19.90
2017,09,04,05,36,19.90
2017,09,04,05,37,19.90
2017,09,04,05,38,19.90
2017,09,04,05,39,19.80
2017,09,04,05,40,19.80
2017,09,04,05,41,19.80
2017,09,04,05,42,19.70
2017,09,04,05,43,19.60
2017,09,04,05,44,19.50
2017,09,04,05,45,19.40
2017,09,04,05,46,19.30
2017,09,04,05,47,19.30
2017,09,04,05,48,19.20
2017,09,04,05,49,19.20
2017,09,04,05,50,19.10
2017,09,04,05,51,19.10
2017,09,04,05,52,19.00
2017,09,04,05,53,19.00
2017,09,04,05,54,18.90
2017,09,04,05,55,18.90
2017,09,04,05,56,18.80
2017,09,04,05,57,18.80
2017,09,04,05,58,18.70
2017,09,04,05,59,18.60
2017,09,04,06,00,18.60
2017,09,04,06,01,18.50
2017,09,04,06,02,18.50
2017,09,04,06,03,18.40
2017,09,04,06,04,18.40
2017,09,04,06,05,18.40
2017,09,04,06,06,18.40
2017,09,04,06,07,18.30
2017,09,04,06,08,18.30
2017,09,04,06,09,18.30
2017,09,04,06,10,18.30
2017,09,04,06,11,18.30
2017,09,04,06,12,18.20
2017,09,04,06,13,18.20
2017,09,04,06,14,18.20
2017,09,04,06,15,18.20
2017,09,04,06,16,18.20
2017,09,04,06,17,18.20
2017,09,04,06,18,18.20
2017,09,04,06,19,18.30
2017,09,04,06,20,18.30
2017,09,04,06,21,18.40
2017,09,04,06,22,18.40
2017,09,04,06,23,18.40
2017,09,04,06,24,18.50
2017,09,04,06,25,18.50
2017,09,04,06,26,18.60
2017,09,04,06,27,18.60
2017,09,04,06,28,18.60
2017,09,04,06,29,18.70
2017,09,04,06,30,18.70
2017,09,04,06,31,18.60
2017,09,04,06,32,18.60
2017,09,04,06,33,18.60
2017,09,04,06,34,18.50
2017,09,04,06,35,18.50
2017,09,04,06,36,18.40
2017,09,04,06,37,18.40
2017,09,04,06,38,18.40
2017,09,04,06,39,18.50
2017,09,04,06,40,18.50
2017,09,04,06,41,18.50
2017,09,04,06,42,18.50
2017,09,04,06,43,18.50
2017,09,04,06,44,18.50
2017,09,04,06,45,18.50
2017,09,04,06,46,18.50
2017,09,04,06,47,18.50
2017,09,04,06,48,18.50
2017,09,04,06,49,18.50
2017,09,04,06,50,18.50
2017,09,04,06,51,18.50
2017,09,04,06,52,18.50
2017,09,04,06,53,18.50
2017,09,04,06,54,18.60
2017,09,04,06,55,18.60
2017,09,04,06,56,18.60
2017,09,04,06,57,18.50
2017,09,04,06,58,18.50
2017,09,04,06,59,18.40
2017,09,04,07,00,18.40
2017,09,04,07,01,18.30
2017,09,04,07,02,18.30
2017,09,04,07,03,18.30
2017,09,04,07,04,18.30
2017,09,04,07,05,18.30
2017,09,04,07,06,18.30
2017,09,04,07,07,18.30
2017,09,04,07,08,18.30
2017,09,04,07,09,18.30
2017,09,04,07,10,18.30
2017,09,04,07,11,18.40
2017,09,04,07,12,18.40
2017,09,04,07,13,18.40
2017,09,04,07,14,18.40
2017,09,04,07,15,18.50
2017,09,04,07,16,18.50
2017,09,04,07,17,18.50
2017,09,04,07,18,18.60
2017,09,04,07,19,18.60
2017,09,04,07,20,18.60
2017,09,04,07,21,18.60
2017,09,04,07,22,18.60
2017,09,04,07,23,18.60
2017,09,04,07,24,18.60
2017,09,04,07,25,18.60
2017,09,04,07,26,18.60
2017,09,04,07,27,18.60
2017,09,04,07,28,18.60
2017,09,04,07,29,18.60
2017,09,04,07,30,18.70
2017,09,04,07,31,18.70
2017,09,04,07,32,18.70
2017,09,04,07,33,18.80
2017,09,04,07,34,18.80
2017,09,04,07,35,18.80
2017,09,04,07,36,18.80
2017,09,04,07,37,18.90
2017,09,04,07,38,18.90
2017,09,04,07,39,18.90
2017,09,04,07,40,19.00
2017,09,04,07,41,19.00
2017,09,04,07,42,19.10
2017,09,04,07,43,19.10
2017,09,04,07,44,19.10
2017,09,04,07,45,19.20
2017,09,04,07,46,19.20
2017,09,04,07,47,19.30
2017,09,04,07,48,19.30
2017,09,04,07,49,19.30
2017,09,04,07,50,19.40
2017,09,04,07,51,19.40
2017,09,04,07,52,19.50
2017,09,04,07,53,19.50
2017,09,04,07,54,19.60
2017,09,04,07,55,19.60
2017,09,04,07,56,19.60
2017,09,04,07,57,19.70
2017,09,04,07,58,19.70
2017,09,04,07,59,19.70
2017,09,04,08,00,19.70
2017,09,04,08,01,19.80
2017,09,04,08,02,19.80
2017,09,04,08,03,19.80
2017,09,04,08,04,19.80
2017,09,04,08,05,19.90
2017,09,04,08,06,19.90
2017,09,04,08,07,19.90
2017,09,04,08,08,19.90
2017,09,04,08,09,20.00
2017,09,04,08,10,20.00
2017,09,04,08,11,20.00
2017,09,04,08,12,20.10
2017,09,04,08,13,20.10
2017,09,04,08,14,20.10
2017,09,04,08,15,20.10
2017,09,04,08,16,20.20
2017,09,04,08,17,20.20
2017,09,04,08,18,20.20
2017,09,04,08,19,20.30
2017,09,04,08,20,20.30
2017,09,04,08,21,20.40
2017,09,04,08,22,20.40
2017,09,04,08,23,20.40
2017,09,04,08,24,20.60
2017,09,04,08,25,20.60
2017,09,04,08,26,20.70
2017,09,04,08,27,20.70
2017,09,04,08,28,20.80
2017,09,04,08,29,20.80
2017,09,04,08,30,20.90
2017,09,04,08,31,20.90
2017,09,04,08,32,20.90
2017,09,04,08,33,20.90
2017,09,04,08,34,20.90
2017,09,04,08,35,20.80
2017,09,04,08,36,20.80
2017,09,04,08,37,20.70
2017,09,04,08,38,20.60
2017,09,04,08,39,20.60
2017,09,04,08,40,20.50
2017,09,04,08,41,20.40
2017,09,04,08,42,20.40
2017,09,04,08,43,20.30
2017,09,04,08,44,20.30
2017,09,04,08,45,20.20
2017,09,04,08,46,20.20
2017,09,04,08,47,20.20
2017,09,04,08,48,20.20
2017,09,04,08,49,20.20
2017,09,04,08,50,20.20
2017,09,04,08,51,20.20
2017,09,04,08,52,20.20
2017,09,04,08,53,20.20
2017,09,04,08,54,20.20
2017,09,04,08,55,20.30
2017,09,04,08,56,20.30
2017,09,04,08,57,20.40
2017,09,04,08,58,20.40
2017,09,04,08,59,20.40
2017,09,04,09,00,20.40
2017,09,04,09,01,20.30
2017,09,04,09,02,20.30
2017,09,04,09,03,20.30
2017,09,04,09,04,20.20
2017,09,04,09,05,20.20
2017,09,04,09,06,20.10
2017,09,04,09,07,20.10
2017,09,04,09,08,20.10
2017,09,04,09,09,20.10
2017,09,04,09,10,20.10
2017,09,04,09,11,20.10
2017,09,04,09,12,20.10
2017,09,04,09,13,20.20
2017,09,04,09,14,20.20
2017,09,04,09,15,20.20
2017,09,04,09,16,20.20
2017,09,04,09,17,20.20
2017,09,04,09,18,20.20
2017,09,04,09,19,20.20
2017,09,04,09,20,20.20
2017,09,04,09,21,20.30
2017,09,04,09,22,20.30
2017,09,04,09,23,20.30
2017,09,04,09,24,20.30
2017,09,04,09,25,20.40
2017,09,04,09,26,20.40
2017,09,04,09,27,20.40
2017,09,04,09,28,20.40
2017,09,04,09,29,20.40
2017,09,04,09,30,20.40
2017,09,04,09,31,20.40
2017,09,04,09,32,20.40
2017,09,04,09,33,20.40
2017,09,04,09,34,20.40
2017,09,04,09,35,20.50
2017,09,04,09,36,20.50
2017,09,04,09,37,20.50
2017,09,04,09,38,20.60
2017,09,04,09,39,20.60
2017,09,04,09,40,20.60
2017,09,04,09,41,20.70
2017,09,04,09,42,20.70
2017,09,04,09,43,20.80
2017,09,04,09,44,20.80
2017,09,04,09,45,20.80
2017,09,04,09,46,20.80
2017,09,04,09,47,20.90
2017,09,04,09,48,20.90
2017,09,04,09,49,20.90
2017,09,04,09,50,21.00
2017,09,04,09,51,21.00
2017,09,04,09,52,21.00
2017,09,04,09,53,21.10
2017,09,04,09,54,21.00
2017,09,04,09,55,21.00
2017,09,04,09,56,20.90
2017,09,04,09,57,20.90
2017,09,04,09,58,20.90
2017,09,04,09,59,20.90
2017,09,04,10,00,20.90
2017,09,04,10,01,21.00
2017,09,04,10,02,21.00
2017,09,04,10,03,21.00
2017,09,04,10,04,21.10
2017,09,04,10,05,21.10
2017,09,04,10,06,21.10
2017,09,04,10,07,21.20
2017,09,04,10,08,21.20
2017,09,04,10,09,21.20
2017,09,04,10,10,21.20
2017,09,04,10,11,21.30
2017,09,04,10,12,21.30
2017,09,04,10,13,21.30
2017,09,04,10,14,21.30
2017,09,04,10,15,21.30
2017,09,04,10,16,21.40
2017,09,04,10,17,21.40
2017,09,04,10,18,21.40
2017,09,04,10,19,21.50
2017,09,04,10,20,21.50
2017,09,04,10,21,21.60
2017,09,04,10,22,21.60
2017,09,04,10,23,21.60
2017,09,04,10,24,21.60
2017,09,04,10,25,21.70
2017,09,04,10,26,21.70
2017,09,04,10,27,21.70
2017,09,04,10,28,21.80
2017,09,04,10,29,21.80
2017,09,04,10,30,21.90
2017,09,04,10,31,21.90
2017,09,04,10,32,22.00
2017,09,04,10,33,22.00
2017,09,04,10,34,22.00
2017,09,04,10,35,22.10
2017,09,04,10,36,22.20
2017,09,04,10,37,22.30
2017,09,04,10,38,22.30
2017,09,04,10,39,22.30
2017,09,04,10,40,22.40
2017,09,04,10,41,22.40
2017,09,04,10,42,22.50
2017,09,04,10,43,22.50
2017,09,04,10,44,22.60
2017,09,04,10,45,22.60
2017,09,04,10,46,22.60
2017,09,04,10,47,22.60
2017,09,04,10,48,22.70
2017,09,04,10,49,22.70
2017,09,04,10,50,22.80
2017,09,04,10,51,22.80
2017,09,04,10,52,22.80
2017,09,04,10,53,22.90
2017,09,04,10,54,22.90
2017,09,04,10,55,23.00
2017,09,04,10,56,23.10
2017,09,04,10,57,23.10
2017,09,04,10,58,23.20
2017,09,04,10,59,23.20
2017,09,04,11,00,23.20
2017,09,04,11,01,23.30
2017,09,04,11,02,23.30
2017,09,04,11,03,23.40
2017,09,04,11,04,23.30
2017,09,04,11,05,23.30
2017,09,04,11,06,23.30
2017,09,04,11,07,23.30
2017,09,04,11,08,23.40
2017,09,04,11,09,23.40
2017,09,04,11,10,23.40
2017,09,04,11,11,23.40
2017,09,04,11,12,23.40
2017,09,04,11,13,23.40
2017,09,04,11,14,23.30
2017,09,04,11,15,23.40
2017,09,04,11,16,23.40
2017,09,04,11,17,23.40
2017,09,04,11,18,23.40
2017,09,04,11,19,23.40
2017,09,04,11,20,23.50
2017,09,04,11,21,23.50
2017,09,04,11,22,23.60
2017,09,04,11,23,23.60
2017,09,04,11,24,23.70
2017,09,04,11,25,23.70
2017,09,04,11,26,23.70
2017,09,04,11,27,23.80
2017,09,04,11,28,23.80
2017,09,04,11,29,23.80
2017,09,04,11,30,23.80
2017,09,04,11,31,23.90
2017,09,04,11,32,23.90
2017,09,04,11,33,24.00
2017,09,04,11,34,24.10
2017,09,04,11,35,24.20
2017,09,04,11,36,24.20
2017,09,04,11,37,24.20
2017,09,04,11,38,24.00
2017,09,04,11,39,23.90
2017,09,04,11,40,23.80
2017,09,04,11,41,23.80
2017,09,04,11,42,23.70
2017,09,04,11,43,23.70
2017,09,04,11,44,23.70
2017,09,04,11,45,23.60
2017,09,04,11,46,23.60
2017,09,04,11,47,23.50
2017,09,04,11,48,23.50
2017,09,04,11,49,23.50
2017,09,04,11,50,23.50
2017,09,04,11,51,23.40
2017,09,04,11,52,23.40
2017,09,04,11,53,23.30
2017,09,04,11,54,23.30
2017,09,04,11,55,23.30
2017,09,04,11,56,23.30
2017,09,04,11,57,23.30
2017,09,04,11,58,23.30
2017,09,04,11,59,23.40
2017,09,04,12,00,23.40
2017,09,04,12,01,23.50
2017,09,04,12,02,23.60
2017,09,04,12,03,23.80
2017,09,04,12,04,23.90
2017,09,04,12,05,24.00
2017,09,04,12,06,24.10
2017,09,04,12,07,24.30
2017,09,04,12,08,24.40
2017,09,04,12,09,24.60
2017,09,04,12,10,24.70
2017,09,04,12,11,24.80
2017,09,04,12,12,24.80
2017,09,04,12,13,24.90
2017,09,04,12,14,24.90
2017,09,04,12,15,24.90
2017,09,04,12,16,24.90
2017,09,04,12,17,24.90
2017,09,04,12,18,24.90
2017,09,04,12,19,24.90
2017,09,04,12,20,25.00
2017,09,04,12,21,25.00
2017,09,04,12,22,25.10
2017,09,04,12,23,25.20
2017,09,04,12,24,25.30
2017,09,04,12,25,25.30
2017,09,04,12,26,25.30
2017,09,04,12,27,25.40
2017,09,04,12,28,25.40
2017,09,04,12,29,25.30
2017,09,04,12,30,25.30
2017,09,04,12,31,25.40
2017,09,04,12,32,25.40
2017,09,04,12,33,25.40
2017,09,04,12,34,25.40
2017,09,04,12,35,25.40
2017,09,04,12,36,25.40
2017,09,04,12,37,25.40
2017,09,04,12,38,25.40
2017,09,04,12,39,25.40
2017,09,04,12,40,25.40
2017,09,04,12,41,25.50
2017,09,04,12,42,25.50
2017,09,04,12,43,25.60
2017,09,04,12,44,25.60
2017,09,04,12,45,25.60
2017,09,04,12,46,25.60
2017,09,04,12,47,25.60
2017,09,04,12,48,25.70
2017,09,04,12,49,25.70
2017,09,04,12,50,25.70
2017,09,04,12,51,25.80
2017,09,04,12,52,25.80
2017,09,04,12,53,25.80
2017,09,04,12,54,25.70
2017,09,04,12,55,25.70
2017,09,04,12,56,25.70
2017,09,04,12,57,25.80
2017,09,04,12,58,25.80
2017,09,04,12,59,25.80
2017,09,04,13,00,25.80
2017,09,04,13,01,25.80
2017,09,04,13,02,25.80
2017,09,04,13,03,25.90
2017,09,04,13,04,26.00
2017,09,04,13,05,26.00
2017,09,04,13,06,26.10
2017,09,04,13,07,26.20
2017,09,04,13,08,26.30
2017,09,04,13,09,26.40
2017,09,04,13,10,26.40
2017,09,04,13,11,26.50
2017,09,04,13,12,26.50
2017,09,04,13,13,26.50
2017,09,04,13,14,26.50
2017,09,04,13,15,26.60
2017,09,04,13,16,26.60
2017,09,04,13,17,26.70
2017,09,04,13,18,26.80
2017,09,04,13,19,26.90
2017,09,04,13,20,27.00
2017,09,04,13,21,27.10
2017,09,04,13,22,27.10
2017,09,04,13,23,27.20
2017,09,04,13,24,27.20
2017,09,04,13,25,27.30
2017,09,04,13,26,27.30
2017,09,04,13,27,27.40
2017,09,04,13,28,27.50
2017,09,04,13,29,27.60
2017,09,04,13,30,27.60
2017,09,04,13,31,27.70
2017,09,04,13,32,27.80
2017,09,04,13,33,27.80
2017,09,04,13,34,27.80
2017,09,04,13,35,27.80
2017,09,04,13,36,27.80
2017,09,04,13,37,27.70
2017,09,04,13,38,27.70
2017,09,04,13,39,27.70
2017,09,04,13,40,27.70
2017,09,04,13,41,27.70
2017,09,04,13,42,27.70
2017,09,04,13,43,27.70
2017,09,04,13,44,27.80
2017,09,04,13,45,27.80
2017,09,04,13,46,27.90
2017,09,04,13,47,27.90
2017,09,04,13,48,28.00
2017,09,04,13,49,28.10
2017,09,04,13,50,28.10
2017,09,04,13,51,28.20
2017,09,04,13,52,28.30
2017,09,04,13,53,28.40
2017,09,04,13,54,28.40
2017,09,04,13,55,28.50
2017,09,04,13,56,28.60
2017,09,04,13,57,28.60
2017,09,04,13,58,28.60
2017,09,04,13,59,28.70
2017,09,04,14,00,28.70
2017,09,04,14,01,28.70
2017,09,04,14,02,28.70
2017,09,04,14,03,28.80
2017,09,04,14,04,28.80
2017,09,04,14,05,28.80
2017,09,04,14,06,28.80
2017,09,04,14,07,28.80
2017,09,04,14,08,28.80
2017,09,04,14,09,28.80
2017,09,04,14,10,28.80
2017,09,04,14,11,28.70
2017,09,04,14,12,28.70
2017,09,04,14,13,28.70
2017,09,04,14,14,28.60
2017,09,04,14,15,28.50
2017,09,04,14,16,28.40
2017,09,04,14,17,28.30
2017,09,04,14,18,28.30
2017,09,04,14,19,28.30
2017,09,04,14,20,28.30
2017,09,04,14,21,28.20
2017,09,04,14,22,28.20
2017,09,04,14,23,28.20
2017,09,04,14,24,28.30
2017,09,04,14,25,28.30
2017,09,04,14,26,28.30
2017,09,04,14,27,28.30
2017,09,04,14,28,28.40
2017,09,04,14,29,28.50
2017,09,04,14,30,28.50
2017,09,04,14,31,28.60
2017,09,04,14,32,28.60
2017,09,04,14,33,28.70
2017,09,04,14,34,28.80
2017,09,04,14,35,28.90
2017,09,04,14,36,29.10
2017,09,04,14,37,29.20
2017,09,04,14,38,29.30
2017,09,04,14,39,29.40
2017,09,04,14,40,29.50
2017,09,04,14,41,29.60
2017,09,04,14,42,29.60
2017,09,04,14,43,29.70
2017,09,04,14,44,29.70
2017,09,04,14,45,29.80
2017,09,04,14,46,29.80
2017,09,04,14,47,29.80
2017,09,04,14,48,29.90
2017,09,04,14,49,29.90
2017,09,04,14,50,29.90
2017,09,04,14,51,29.90
2017,09,04,14,52,29.90
2017,09,04,14,53,29.90
2017,09,04,14,54,29.90
2017,09,04,14,55,29.90
2017,09,04,14,56,30.00
2017,09,04,14,57,30.00
2017,09,04,14,58,30.10
2017,09,04,14,59,30.20
2017,09,04,15,00,30.30
2017,09,04,15,01,30.30
2017,09,04,15,02,30.30
2017,09,04,15,03,30.40
2017,09,04,15,04,30.40
2017,09,04,15,05,30.40
2017,09,04,15,06,30.40
2017,09,04,15,07,30.40
2017,09,04,15,08,30.40
2017,09,04,15,09,30.40
2017,09,04,15,10,30.30
2017,09,04,15,11,30.30
2017,09,04,15,12,30.30
2017,09,04,15,13,30.30
2017,09,04,15,14,30.40
2017,09,04,15,15,30.40
2017,09,04,15,16,30.50
2017,09,04,15,17,30.50
2017,09,04,15,18,30.60
2017,09,04,15,19,30.70
2017,09,04,15,20,30.70
2017,09,04,15,21,30.80
2017,09,04,15,22,30.80
2017,09,04,15,23,30.70
2017,09,04,15,24,30.70
2017,09,04,15,25,30.70
2017,09,04,15,26,30.60
2017,09,04,15,27,30.60
2017,09,04,15,28,30.60
2017,09,04,15,29,30.50
2017,09,04,15,30,30.50
2017,09,04,15,31,30.50
2017,09,04,15,32,30.40
2017,09,04,15,33,30.40
2017,09,04,15,34,30.40
2017,09,04,15,35,30.50
2017,09,04,15,36,30.50
2017,09,04,15,37,30.50
2017,09,04,15,38,30.50
2017,09,04,15,39,30.50
2017,09,04,15,40,30.50
2017,09,04,15,41,30.60
2017,09,04,15,42,30.60
2017,09,04,15,43,30.60
2017,09,04,15,44,30.60
2017,09,04,15,45,30.60
2017,09,04,15,46,30.60
2017,09,04,15,47,30.60
2017,09,04,15,48,30.70
2017,09,04,15,49,30.70
2017,09,04,15,50,30.80
2017,09,04,15,51,30.80
2017,09,04,15,52,30.80
2017,09,04,15,53,30.80
2017,09,04,15,54,30.90
2017,09,04,15,55,30.90
2017,09,04,15,56,30.90
2017,09,04,15,57,30.90
2017,09,04,15,58,31.00
2017,09,04,15,59,31.00
2017,09,04,16,00,31.10
2017,09,04,16,01,31.10
2017,09,04,16,02,31.20
2017,09,04,16,03,31.20
2017,09,04,16,04,31.20
2017,09,04,16,05,31.20
2017,09,04,16,06,31.30
2017,09,04,16,07,31.30
2017,09,04,16,08,31.30
2017,09,04,16,09,31.30
2017,09,04,16,10,31.40
2017,09,04,16,11,31.40
2017,09,04,16,12,31.50
2017,09,04,16,13,31.50
2017,09,04,16,14,31.60
2017,09,04,16,15,31.60
2017,09,04,16,16,31.70
2017,09,04,16,17,31.70
2017,09,04,16,18,31.80
2017,09,04,16,19,31.80
2017,09,04,16,20,31.90
2017,09,04,16,21,31.90
2017,09,04,16,22,31.90
2017,09,04,16,23,31.90
2017,09,04,16,24,31.90
2017,09,04,16,25,31.90
2017,09,04,16,26,31.90
2017,09,04,16,27,31.90
2017,09,04,16,28,31.90
2017,09,04,16,29,31.90
2017,09,04,16,30,31.90
2017,09,04,16,31,31.90
2017,09,04,16,32,32.00
2017,09,04,16,33,32.00
2017,09,04,16,34,32.00
2017,09,04,16,35,32.10
2017,09,04,16,36,32.10
2017,09,04,16,37,32.10
2017,09,04,16,38,32.10
2017,09,04,16,39,32.10
2017,09,04,16,40,32.10
2017,09,04,16,41,32.00
2017,09,04,16,42,32.00
2017,09,04,16,43,31.90
2017,09,04,16,44,31.90
2017,09,04,16,45,32.00
2017,09,04,16,46,32.00
2017,09,04,16,47,32.00
2017,09,04,16,48,32.00
2017,09,04,16,49,32.00
2017,09,04,16,50,32.00
2017,09,04,16,51,32.00
2017,09,04,16,52,32.10
2017,09,04,16,53,32.10
2017,09,04,16,54,32.20
2017,09,04,16,55,32.20
2017,09,04,16,56,32.30
2017,09,04,16,57,32.30
2017,09,04,16,58,32.30
2017,09,04,16,59,32.40
2017,09,04,17,00,32.40
2017,09,04,17,01,32.40
2017,09,04,17,02,32.40
2017,09,04,17,03,32.40
2017,09,04,17,04,32.40
2017,09,04,17,05,32.40
2017,09,04,17,06,32.40
2017,09,04,17,07,32.40
2017,09,04,17,08,32.40
2017,09,04,17,09,32.40
2017,09,04,17,10,32.50
2017,09,04,17,11,32.50
2017,09,04,17,12,32.50
2017,09,04,17,13,32.50
2017,09,04,17,14,32.60
2017,09,04,17,15,32.60
2017,09,04,17,16,32.60
2017,09,04,17,17,32.60
2017,09,04,17,18,32.70
2017,09,04,17,19,32.70